Regional Weather Roundup
Issued by NWS Burlington, VT

Home | Current Version | Previous Version | Text Only | Print | Product List | Glossary On
Versions: 1 2 3 4 5 6 7 8 9 10 11 12 13 14 15 16 17 18 19 20 21 22 23 24 25 26 27 28 29 30 31 32 33 34 35 36 37 38 39 40 41 42 43 44 45 46 47 48
000
ASUS41 KBTV 041330
RWRBTV
VERMONT REGIONAL WEATHER ROUNDUP
NATIONAL WEATHER SERVICE BURLINGTON VT
900 AM EDT TUE AUG 04 2015

NOTE: "FAIR" INDICATES FEW OR NO CLOUDS BELOW 12,000 FEET WITH NO
SIGNIFICANT WEATHER AND/OR OBSTRUCTIONS TO VISIBILITY.

* THESE REPORTS ARE NOT UNDER NWS QUALITY CONTROL AND/OR DO NOT
  REPORT WEATHER SUCH AS PRECIPITATION AND FOG.

VTZ001>019-041400-
_____VERMONT_____


CITY           SKY/WX    TMP DP  RH WIND       PRES   REMARKS
BURLINGTON     MOSUNNY   73  61  65 SW9       29.81R
MONTPELIER     SUNNY     71  60  68 CALM      29.87S
MORRISVILLE    SUNNY     70  61  73 S3        29.83S
ST. JOHNSBURY*   N/A     66  61  84 MISG      29.82S
LYNDONVILLE*   CLOUDY    62  61  97 E3        29.86S FOG
MIDDLEBURY*    FAIR      73  62  68 S6        29.82S
SPRINGFIELD    CLOUDY    67  64  90 CALM      29.85S
HIGHGATE*      LGT RAIN  68  63  83 SW5       29.81R
NEWPORT*       FAIR      70  62  76 S6        29.83S
BENNINGTON     MOSUNNY   71  65  81 CALM      29.85S
MT. MANSFIELD*   N/A     57 N/A N/A NW8G21      N/A

_____LAKE CHAMPLAIN_____


CITY           SKY/WX    TMP DP  RH WIND       PRES   REMARKS
COLCHESTER RF*   N/A     68  64  88 SW12        N/A
DIAMOND ISL*     N/A     68  64  88 SW9         N/A

$$

NYZ007-026>031-035-052-083-041400-
_____NORTHERN NEW YORK_____


CITY           SKY/WX    TMP DP  RH WIND       PRES   REMARKS
PLATTSBURGH    LGT RAIN  66  60  81 W5        29.81R
SARANAC LAKE   CLOUDY    61  59  93 SW6       29.85S
MASSENA        CLOUDY    68  59  73 SW8       29.81S
OGDENSBURG*    SUNNY     70  61  73 W7        29.81S
POTSDAM*       CLOUDY    70  64  83 SW9       29.82S
WATERTOWN      CLOUDY    70  62  76 SW7       29.83S
FT DRUM        MOSUNNY   68  62  79 SW6       29.83S
ALBANY         MOSUNNY   73  65  75 CALM      29.83S
GLENS FALLS    MOSUNNY   70  65  84 S7        29.82S

$$
NHZ002-005-011-041400-
_____NEW HAMPSHIRE_____


CITY           SKY/WX    TMP DP  RH WIND       PRES   REMARKS
LEBANON        CLOUDY    68  63  84 W3        29.83S
KEENE          MOSUNNY   70  63  78 CALM      29.86R
MT WASHINGTON  MOSUNNY   48  45  87 W21         N/A
PLYMOUTH       CLOUDY    63  63 100 CALM      29.84S FOG
WHITEFIELD     MOSUNNY   63  61  93 CALM      29.85S

$$

_____REGIONAL QUEBEC LOCATIONS_____


CITY           SKY/WX    TMP DP  RH WIND       PRES   REMARKS
MONTREAL       PTSUNNY   70  59  68 W13       29.78S
QUEBEC CITY    PTSUNNY   66  61  82 SW6       29.77S
SHERBROOKE     MOSUNNY   68  63  83 SW3       29.81S

_____REGIONAL ONTARIO LOCATIONS_____


CITY           SKY/WX    TMP DP  RH WIND       PRES   REMARKS
OTTAWA         MOSUNNY   68  57  68 W10       29.79F

______KEY______
VSB  - VISIBILITY IN MILES
WCI  - WIND CHILL INDEX
HX   - HEAT INDEX
$$
NNNN


USA.gov is the U.S. government's official web portal to all federal, state and local government web resources and services.